Time,TemperatureF,DewpointF,PressureIn,WindDirection,WindDirectionDegrees,WindSpeedMPH,WindSpeedGustMPH,Humidity,HourlyPrecipIn,Conditions,Clouds,dailyrainin,SoftwareType,DateUTC
2013-02-26 00:10:00,46.6,40.0,30.05,West,280,0.0,0.0,79,0.00,,,0.00,weatherlink.com 1.10,2013-02-26 08:10:00,
2013-02-26 00:25:00,46.9,41.0,30.05,West,280,0.0,1.0,80,0.00,,,0.00,weatherlink.com 1.10,2013-02-26 08:25:00,
2013-02-26 00:40:00,47.0,41.0,30.04,West,280,0.0,0.0,81,0.00,,,0.00,weatherlink.com 1.10,2013-02-26 08:40:00,
2013-02-26 00:55:00,46.8,41.0,30.04,West,280,0.0,0.0,81,0.00,,,0.00,weatherlink.com 1.10,2013-02-26 08:55:00,
2013-02-26 01:10:00,46.5,41.0,30.03,West,280,0.0,0.0,81,0.00,,,0.00,weatherlink.com 1.10,2013-02-26 09:10:00,
2013-02-26 01:25:00,45.8,41.0,30.03,West,280,0.0,0.0,82,0.00,,,0.00,weatherlink.com 1.10,2013-02-26 09:25:00,
2013-02-26 01:40:00,45.5,40.0,30.02,West,280,0.0,0.0,82,0.00,,,0.00,weatherlink.com 1.10,2013-02-26 09:40:00,
2013-02-26 01:55:00,45.1,40.0,30.01,West,280,0.0,0.0,83,0.00,,,0.00,weatherlink.com 1.10,2013-02-26 09:55:00,
2013-02-26 02:11:00,44.8,40.0,30.00,West,281,0.0,0.0,82,0.00,,,0.00,weatherlink.com 1.10,2013-02-26 10:11:00,
2013-02-26 02:26:00,44.5,40.0,30.00,West,280,0.0,0.0,83,0.00,,,0.00,weatherlink.com 1.10,2013-02-26 10:26:00,
2013-02-26 02:41:00,44.1,39.0,30.00,West,280,0.0,0.0,83,0.00,,,0.00,weatherlink.com 1.10,2013-02-26 10:41:00,
2013-02-26 02:56:00,43.9,40.0,30.00,West,281,0.0,0.0,85,0.00,,,0.00,weatherlink.com 1.10,2013-02-26 10:56:00,
2013-02-26 03:11:00,43.5,39.0,29.99,West,280,0.0,0.0,84,0.00,,,0.00,weatherlink.com 1.10,2013-02-26 11:11:00,
2013-02-26 03:26:00,42.8,38.0,29.99,West,280,0.0,0.0,84,0.00,,,0.00,weatherlink.com 1.10,2013-02-26 11:26:00,
2013-02-26 03:41:00,42.5,38.0,29.99,West,280,0.0,1.0,85,0.00,,,0.00,weatherlink.com 1.10,2013-02-26 11:41:00,
2013-02-26 03:56:00,41.9,38.0,29.99,West,280,0.0,0.0,85,0.00,,,0.00,weatherlink.com 1.10,2013-02-26 11:56:00,
2013-02-26 04:11:00,41.2,37.0,29.99,West,280,0.0,0.0,86,0.00,,,0.00,weatherlink.com 1.10,2013-02-26 12:11:00,
2013-02-26 04:26:00,41.0,37.0,29.99,West,280,0.0,1.0,87,0.00,,,0.00,weatherlink.com 1.10,2013-02-26 12:26:00,
2013-02-26 04:41:00,41.3,38.0,29.98,West,280,0.0,0.0,87,0.00,,,0.00,weatherlink.com 1.10,2013-02-26 12:41:00,
2013-02-26 04:56:00,41.2,38.0,29.99,West,280,0.0,0.0,87,0.00,,,0.00,weatherlink.com 1.10,2013-02-26 12:56:00,
2013-02-26 05:11:00,41.1,38.0,29.99,West,280,0.0,1.0,87,0.00,,,0.00,weatherlink.com 1.10,2013-02-26 13:11:00,
2013-02-26 05:26:00,41.0,37.0,29.99,West,280,0.0,0.0,86,0.00,,,0.00,weatherlink.com 1.10,2013-02-26 13:26:00,
2013-02-26 05:41:00,40.5,37.0,29.99,West,280,0.0,0.0,86,0.00,,,0.00,weatherlink.com 1.10,2013-02-26 13:41:00,
2013-02-26 05:56:00,40.0,37.0,29.99,West,280,0.0,0.0,87,0.00,,,0.00,weatherlink.com 1.10,2013-02-26 13:56:00,
2013-02-26 06:11:00,40.0,37.0,29.99,West,280,0.0,0.0,88,0.00,,,0.00,weatherlink.com 1.10,2013-02-26 14:11:00,
2013-02-26 06:26:00,40.3,37.0,29.99,WNW,282,0.0,1.0,88,0.00,,,0.00,weatherlink.com 1.10,2013-02-26 14:26:00,
2013-02-26 06:41:00,41.0,37.0,30.00,West,280,0.0,0.0,87,0.00,,,0.00,weatherlink.com 1.10,2013-02-26 14:41:00,
2013-02-26 06:56:00,41.9,39.0,30.00,West,281,0.0,0.0,88,0.00,,,0.00,weatherlink.com 1.10,2013-02-26 14:56:00,
2013-02-26 07:11:00,44.0,40.0,30.00,WNW,285,1.0,1.0,85,0.00,,,0.00,weatherlink.com 1.10,2013-02-26 15:11:00,
2013-02-26 07:26:00,46.5,40.0,30.00,NW,325,2.0,3.0,77,0.00,,,0.00,weatherlink.com 1.10,2013-02-26 15:26:00,
2013-02-26 07:41:00,48.4,39.0,30.01,NNW,346,0.0,2.0,71,0.00,,,0.00,weatherlink.com 1.10,2013-02-26 15:41:00,
2013-02-26 07:56:00,50.6,40.0,30.01,NNE,18,0.0,1.0,66,0.00,,,0.00,weatherlink.com 1.10,2013-02-26 15:56:00,
2013-02-26 08:11:00,52.3,40.0,30.02,NNW,338,0.0,1.0,64,0.00,,,0.00,weatherlink.com 1.10,2013-02-26 16:11:00,
2013-02-26 08:26:00,53.4,42.0,30.02,NNW,328,0.0,3.0,66,0.00,,,0.00,weatherlink.com 1.10,2013-02-26 16:26:00,
2013-02-26 08:41:00,54.9,44.0,30.02,North,350,0.0,2.0,67,0.00,,,0.00,weatherlink.com 1.10,2013-02-26 16:41:00,
2013-02-26 08:56:00,55.9,46.0,30.03,North,353,1.0,2.0,69,0.00,,,0.00,weatherlink.com 1.10,2013-02-26 16:56:00,
2013-02-26 09:11:00,57.9,47.0,30.03,WNW,303,0.0,1.0,67,0.00,,,0.00,weatherlink.com 1.10,2013-02-26 17:11:00,
2013-02-26 09:26:00,58.5,47.0,30.03,NW,312,0.0,3.0,65,0.00,,,0.00,weatherlink.com 1.10,2013-02-26 17:26:00,
2013-02-26 09:42:00,59.2,46.0,30.02,West,279,1.0,2.0,61,0.00,,,0.00,weatherlink.com 1.10,2013-02-26 17:42:00,
2013-02-26 09:57:00,60.7,44.0,30.02,SE,141,1.0,3.0,55,0.00,,,0.00,weatherlink.com 1.10,2013-02-26 17:57:00,
2013-02-26 10:12:00,61.2,43.0,30.02,West,279,3.0,4.0,51,0.00,,,0.00,weatherlink.com 1.10,2013-02-26 18:12:00,
2013-02-26 10:27:00,61.4,43.0,30.02,WNW,298,1.0,4.0,52,0.00,,,0.00,weatherlink.com 1.10,2013-02-26 18:27:00,
2013-02-26 10:42:00,62.7,43.0,30.02,West,271,0.0,5.0,49,0.00,,,0.00,weatherlink.com 1.10,2013-02-26 18:42:00,
2013-02-26 10:57:00,64.9,43.0,30.02,NNW,330,3.0,5.0,45,0.00,,,0.00,weatherlink.com 1.10,2013-02-26 18:57:00,
2013-02-26 11:12:00,65.7,41.0,30.00,NNW,339,6.0,6.0,41,0.00,,,0.00,weatherlink.com 1.10,2013-02-26 19:12:00,
2013-02-26 11:27:00,67.1,37.0,30.00,North,352,4.0,5.0,33,0.00,,,0.00,weatherlink.com 1.10,2013-02-26 19:27:00,
2013-02-26 11:42:00,67.9,36.0,30.00,North,1,3.0,7.0,31,0.00,,,0.00,weatherlink.com 1.10,2013-02-26 19:42:00,
2013-02-26 11:57:00,68.3,34.0,29.98,West,278,1.0,6.0,28,0.00,,,0.00,weatherlink.com 1.10,2013-02-26 19:57:00,
2013-02-26 12:27:00,70.3,31.0,29.97,East,96,2.0,4.0,23,0.00,,,0.00,weatherlink.com 1.10,2013-02-26 20:27:00,
2013-02-26 12:42:00,71.6,30.0,29.96,NNW,346,3.0,5.0,21,0.00,,,0.00,weatherlink.com 1.10,2013-02-26 20:42:00,
2013-02-26 12:57:00,69.1,48.0,29.96,WSW,248,9.0,10.0,48,0.00,,,0.00,weatherlink.com 1.10,2013-02-26 20:57:00,
2013-02-26 13:12:00,66.4,49.0,29.96,SW,235,4.0,10.0,53,0.00,,,0.00,weatherlink.com 1.10,2013-02-26 21:12:00,
2013-02-26 13:27:00,66.8,48.0,29.95,SSW,209,4.0,9.0,52,0.00,,,0.00,weatherlink.com 1.10,2013-02-26 21:27:00,
2013-02-26 13:42:00,66.3,48.0,29.95,SW,236,5.0,10.0,52,0.00,,,0.00,weatherlink.com 1.10,2013-02-26 21:42:00,
2013-02-26 13:57:00,67.6,48.0,29.95,ESE,105,4.0,9.0,49,0.00,,,0.00,weatherlink.com 1.10,2013-02-26 21:57:00,
2013-02-26 14:12:00,68.2,48.0,29.95,SW,226,2.0,8.0,48,0.00,,,0.00,weatherlink.com 1.10,2013-02-26 22:12:00,
2013-02-26 14:27:00,69.0,47.0,29.95,SSE,153,4.0,7.0,45,0.00,,,0.00,weatherlink.com 1.10,2013-02-26 22:27:00,
2013-02-26 14:42:00,69.1,46.0,29.95,SW,226,2.0,8.0,44,0.00,,,0.00,weatherlink.com 1.10,2013-02-26 22:42:00,
2013-02-26 14:57:00,68.9,47.0,29.96,SSW,211,3.0,8.0,45,0.00,,,0.00,weatherlink.com 1.10,2013-02-26 22:57:00,
2013-02-26 15:12:00,69.0,47.0,29.95,WNW,282,4.0,6.0,45,0.00,,,0.00,weatherlink.com 1.10,2013-02-26 23:12:00,
2013-02-26 15:27:00,69.7,47.0,29.95,SSW,192,3.0,6.0,45,0.00,,,0.00,weatherlink.com 1.10,2013-02-26 23:27:00,
2013-02-26 15:42:00,69.7,47.0,29.95,WSW,244,3.0,6.0,45,0.00,,,0.00,weatherlink.com 1.10,2013-02-26 23:42:00,
2013-02-26 15:57:00,70.3,48.0,29.95,SW,224,0.0,4.0,45,0.00,,,0.00,weatherlink.com 1.10,2013-02-26 23:57:00,
2013-02-26 16:12:00,70.5,48.0,29.95,WNW,298,8.0,10.0,45,0.00,,,0.00,weatherlink.com 1.10,2013-02-27 00:12:00,
2013-02-26 16:27:00,69.0,48.0,29.95,WNW,288,5.0,9.0,48,0.00,,,0.00,weatherlink.com 1.10,2013-02-27 00:27:00,
2013-02-26 16:42:00,67.5,45.0,29.95,WSW,255,2.0,8.0,45,0.00,,,0.00,weatherlink.com 1.10,2013-02-27 00:42:00,
2013-02-26 16:57:00,66.8,44.0,29.95,West,279,2.0,9.0,44,0.00,,,0.00,weatherlink.com 1.10,2013-02-27 00:57:00,
2013-02-26 17:12:00,65.8,42.0,29.96,West,280,6.0,9.0,42,0.00,,,0.00,weatherlink.com 1.10,2013-02-27 01:12:00,
2013-02-26 17:27:00,64.9,42.0,29.97,WNW,282,1.0,9.0,43,0.00,,,0.00,weatherlink.com 1.10,2013-02-27 01:27:00,
2013-02-26 17:42:00,63.5,40.0,29.97,WNW,287,1.0,3.0,43,0.00,,,0.00,weatherlink.com 1.10,2013-02-27 01:42:00,
2013-02-26 17:57:00,62.6,39.0,29.97,WNW,285,1.0,4.0,42,0.00,,,0.00,weatherlink.com 1.10,2013-02-27 01:57:00,
2013-02-26 18:12:00,61.5,39.0,29.98,WNW,285,1.0,1.0,44,0.00,,,0.00,weatherlink.com 1.10,2013-02-27 02:12:00,
2013-02-26 18:27:00,60.8,40.0,29.98,WNW,285,1.0,2.0,46,0.00,,,0.00,weatherlink.com 1.10,2013-02-27 02:27:00,
2013-02-26 18:42:00,60.1,41.0,29.99,WNW,285,0.0,1.0,49,0.00,,,0.00,weatherlink.com 1.10,2013-02-27 02:42:00,
2013-02-26 18:57:00,59.3,41.0,30.00,WNW,285,0.0,1.0,51,0.00,,,0.00,weatherlink.com 1.10,2013-02-27 02:57:00,
2013-02-26 19:12:00,59.1,42.0,30.00,WNW,289,0.0,1.0,53,0.00,,,0.00,weatherlink.com 1.10,2013-02-27 03:12:00,
2013-02-26 19:27:00,58.1,42.0,30.00,WNW,288,0.0,1.0,55,0.00,,,0.00,weatherlink.com 1.10,2013-02-27 03:27:00,
2013-02-26 19:42:00,57.1,42.0,30.01,WNW,288,0.0,0.0,58,0.00,,,0.00,weatherlink.com 1.10,2013-02-27 03:42:00,
2013-02-26 19:57:00,56.2,42.0,30.01,WNW,289,0.0,0.0,59,0.00,,,0.00,weatherlink.com 1.10,2013-02-27 03:57:00,
2013-02-26 20:12:00,56.0,43.0,30.02,WNW,289,0.0,1.0,61,0.00,,,0.00,weatherlink.com 1.10,2013-02-27 04:12:00,
2013-02-26 20:27:00,55.4,42.0,30.02,WNW,289,0.0,0.0,62,0.00,,,0.00,weatherlink.com 1.10,2013-02-27 04:27:00,
2013-02-26 20:42:00,54.5,42.0,30.03,WNW,288,0.0,1.0,64,0.00,,,0.00,weatherlink.com 1.10,2013-02-27 04:42:00,
2013-02-26 20:57:00,53.7,42.0,30.03,WNW,288,0.0,0.0,66,0.00,,,0.00,weatherlink.com 1.10,2013-02-27 04:57:00,
2013-02-26 21:12:00,53.1,42.0,30.04,WNW,289,0.0,0.0,67,0.00,,,0.00,weatherlink.com 1.10,2013-02-27 05:12:00,
2013-02-26 21:27:00,53.6,43.0,30.04,West,260,1.0,1.0,68,0.00,,,0.00,weatherlink.com 1.10,2013-02-27 05:27:00,
2013-02-26 21:42:00,53.7,43.0,30.05,ENE,63,0.0,1.0,67,0.00,,,0.00,weatherlink.com 1.10,2013-02-27 05:42:00,
2013-02-26 21:57:00,52.9,43.0,30.06,ENE,63,0.0,1.0,69,0.00,,,0.00,weatherlink.com 1.10,2013-02-27 05:57:00,
2013-02-26 22:12:00,52.2,43.0,30.06,ENE,63,0.0,0.0,70,0.00,,,0.00,weatherlink.com 1.10,2013-02-27 06:12:00,
2013-02-26 22:27:00,51.5,43.0,30.06,ENE,63,0.0,1.0,72,0.00,,,0.00,weatherlink.com 1.10,2013-02-27 06:27:00,
2013-02-26 22:42:00,51.2,43.0,30.06,ENE,63,0.0,1.0,73,0.00,,,0.00,weatherlink.com 1.10,2013-02-27 06:42:00,
2013-02-26 22:58:00,50.3,42.0,30.06,ENE,63,0.0,1.0,74,0.00,,,0.00,weatherlink.com 1.10,2013-02-27 06:58:00,
2013-02-26 23:13:00,49.8,43.0,30.07,NW,323,0.0,1.0,76,0.00,,,0.00,weatherlink.com 1.10,2013-02-27 07:13:00,
2013-02-26 23:28:00,49.5,42.0,30.07,NW,304,0.0,1.0,75,0.00,,,0.00,weatherlink.com 1.10,2013-02-27 07:28:00,
2013-02-26 23:43:00,49.4,42.0,30.07,NW,304,0.0,0.0,76,0.00,,,0.00,weatherlink.com 1.10,2013-02-27 07:43:00,
2013-02-26 23:58:00,49.3,42.0,30.07,NW,304,1.0,1.0,77,0.00,,,0.00,weatherlink.com 1.10,2013-02-27 07:58:00,